User: anonymous   Login
Location: Trebic
(49.2170°N, 15.8830°E)
Time: 20:08:49
(UTC+02:00)
Language:

A-11 Canister half - Orbit

View from above orbital plane
View from above orbital plane
View from above satellite
View from above satellite

Ground track
Ground track

The orbit data is extracted from the following two-line orbital elements,

1    51U 60009C   19198.65168883 -.00000092 +00000-0 -81621-4 0  9999
2    51 047.2149 306.3070 0107098 243.6724 115.3032 12.18273682623159
Epoch (UTC): 17 July 2019 15:38:25
Eccentricity: 0.0107098
inclination: 47.2149°
perigee height: 1514 km
apogee height: 1685 km
right ascension of ascending node: 306.3070°
argument of perigee: 243.6724°
revolutions per day: 12.18273682
mean anomaly at epoch: 115.3032°
orbit number at epoch: 62315

The dashed part of the orbit path shows where the satellite is in the earth's shadow,  

DLR